Previsão horária em Almese

Hoje, 15 Janeiro, Sexta-feira

Tempo Temperatura Precipitação Vento Pressão Humidade
00:00 +3°C° 0 mm 1 m/s 701 mmHg 80%
01:00 +2°C° 0 mm 1 m/s 702 mmHg 80%
02:00 +2°C° 0 mm 1 m/s 702 mmHg 79%
03:00 +2°C° 0 mm 1 m/s 702 mmHg 79%
04:00 +2°C° 0 mm 1 m/s 702 mmHg 81%
05:00 +2°C° 0 mm 1 m/s 702 mmHg 82%
06:00 +2°C° 0 mm 1 m/s 702 mmHg 82%
07:00 +2°C° 0 mm 1 m/s 702 mmHg 84%
08:00 +2°C° 0 mm 1 m/s 703 mmHg 86%
09:00 +3°C° 0 mm 1 m/s 703 mmHg 88%
10:00 +3°C° 0 mm 1 m/s 703 mmHg 87%
11:00 +4°C° 0 mm 1 m/s 703 mmHg 87%
12:00 +4°C° 0 mm 1 m/s 703 mmHg 86%
13:00 +4°C° 0 mm 1 m/s 703 mmHg 86%
14:00 +4°C° 0 mm 1 m/s 703 mmHg 86%
15:00 +3°C° 0 mm 1 m/s 703 mmHg 86%
16:00 +3°C° 0 mm 1 m/s 703 mmHg 86%
17:00 +2°C° 0 mm 1 m/s 704 mmHg 85%
18:00 +1°C° 0 mm 1 m/s 704 mmHg 85%
19:00 +1°C° 0 mm 1 m/s 704 mmHg 83%
20:00 +1°C° 0 mm 1 m/s 705 mmHg 82%
21:00 0°C° 0 mm 1 m/s 705 mmHg 80%
22:00 0°C° 0 mm 1 m/s 706 mmHg 78%
23:00 0°C° 0 mm 1 m/s 706 mmHg 77%

Amanhã, 16 Janeiro, Sábado

Tempo Temperatura Precipitação Vento Pressão Humidade
00:00 0°C° 0 mm 1 m/s 706 mmHg 75%
01:00 -1°C° 0 mm 1 m/s 706 mmHg 74%
02:00 -1°C° 0 mm 1 m/s 706 mmHg 73%
03:00 -1°C° 0 mm 1 m/s 706 mmHg 73%
04:00 -1°C° 0 mm 1 m/s 707 mmHg 71%
05:00 -1°C° 0 mm 1 m/s 707 mmHg 70%
06:00 -1°C° 0 mm 1 m/s 708 mmHg 68%
07:00 0°C° 0 mm 1 m/s 708 mmHg 68%
08:00 0°C° 0 mm 1 m/s 708 mmHg 67%
09:00 +1°C° 0 mm 1 m/s 708 mmHg 66%
10:00 +2°C° 0 mm 1 m/s 708 mmHg 66%
11:00 +3°C° 0 mm 1 m/s 707 mmHg 66%
12:00 +4°C° 0 mm 1 m/s 707 mmHg 66%
13:00 +4°C° 0 mm 1 m/s 707 mmHg 68%
14:00 +3°C° 0 mm 1 m/s 707 mmHg 70%
15:00 +3°C° 0 mm 1 m/s 706 mmHg 73%
16:00 +2°C° 0 mm 1 m/s 707 mmHg 71%
17:00 -1°C° 0 mm 2 m/s 707 mmHg 69%
18:00 -2°C° 0 mm 2 m/s 707 mmHg 67%
19:00 -2°C° 0 mm 2 m/s 707 mmHg 66%
20:00 -2°C° 0 mm 2 m/s 707 mmHg 65%
21:00 -2°C° 0 mm 2 m/s 707 mmHg 64%
22:00 -2°C° 0 mm 2 m/s 706 mmHg 68%
23:00 -2°C° 0 mm 2 m/s 706 mmHg 72%

Depois de amanhã, 17 Janeiro, Domingo

Tempo Temperatura Precipitação Vento Pressão Humidade
00:00 -2°C° 0 mm 2 m/s 706 mmHg 77%
01:00 -2°C° 0 mm 2 m/s 705 mmHg 80%
02:00 -2°C° 0 mm 2 m/s 705 mmHg 82%
03:00 -2°C° 0 mm 2 m/s 704 mmHg 85%
04:00 -2°C° 0 mm 2 m/s 704 mmHg 85%
05:00 -2°C° 0 mm 2 m/s 704 mmHg 86%
06:00 -2°C° 0 mm 2 m/s 704 mmHg 86%
07:00 -1°C° 0 mm 2 m/s 705 mmHg 84%
08:00 -1°C° 0 mm 2 m/s 705 mmHg 81%
09:00 +1°C° 0 mm 2 m/s 705 mmHg 79%
10:00 +2°C° 0 mm 2 m/s 705 mmHg 76%
11:00 +3°C° 0 mm 2 m/s 705 mmHg 73%
12:00 +4°C° 0 mm 2 m/s 705 mmHg 71%
13:00 +3°C° 0 mm 2 m/s 705 mmHg 71%
14:00 +3°C° 0 mm 2 m/s 704 mmHg 72%
15:00 +3°C° 0 mm 2 m/s 704 mmHg 73%
16:00 +2°C° 0 mm 2 m/s 705 mmHg 72%
17:00 0°C° 0 mm 3 m/s 705 mmHg 71%
18:00 -2°C° 0 mm 3 m/s 706 mmHg 70%
19:00 -2°C° 0 mm 3 m/s 706 mmHg 69%
20:00 -2°C° 0 mm 3 m/s 706 mmHg 67%
21:00 -2°C° 0 mm 3 m/s 706 mmHg 66%
22:00 -2°C° 0 mm 3 m/s 707 mmHg 64%
23:00 -4°C° 0 mm 3 m/s 707 mmHg 62%

18 Janeiro, Segunda-feira

Tempo Temperatura Precipitação Vento Pressão Humidade
00:00 -4°C° 0 mm 3 m/s 707 mmHg 61%
01:00 -4°C° 0 mm 3 m/s 707 mmHg 57%
02:00 -3°C° 0 mm 2 m/s 707 mmHg 53%
03:00 -2°C° 0 mm 2 m/s 707 mmHg 50%
04:00 -3°C° 0 mm 2 m/s 708 mmHg 48%
05:00 -3°C° 0 mm 2 m/s 708 mmHg 47%
06:00 -3°C° 0 mm 2 m/s 708 mmHg 46%
07:00 -2°C° 0 mm 2 m/s 708 mmHg 45%
08:00 +1°C° 0 mm 1 m/s 709 mmHg 44%
09:00 +2°C° 0 mm 1 m/s 709 mmHg 43%
10:00 +3°C° 0 mm 1 m/s 709 mmHg 43%
11:00 +4°C° 0 mm 1 m/s 709 mmHg 42%
12:00 +5°C° 0 mm 1 m/s 709 mmHg 42%
13:00 +4°C° 0 mm 1 m/s 709 mmHg 47%
14:00 +4°C° 0 mm 1 m/s 709 mmHg 52%
15:00 +3°C° 0 mm 1 m/s 709 mmHg 57%
16:00 +2°C° 0 mm 1 m/s 709 mmHg 56%
17:00 +1°C° 0 mm 1 m/s 710 mmHg 55%
18:00 0°C° 0 mm 1 m/s 710 mmHg 54%
19:00 0°C° 0 mm 1 m/s 710 mmHg 53%
20:00 0°C° 0 mm 1 m/s 710 mmHg 52%
21:00 -1°C° 0 mm 1 m/s 710 mmHg 51%
22:00 -1°C° 0 mm 1 m/s 711 mmHg 51%
23:00 -1°C° 0 mm 1 m/s 711 mmHg 50%

19 Janeiro, Terça-feira

Tempo Temperatura Precipitação Vento Pressão Humidade
00:00 -1°C° 0 mm 1 m/s 711 mmHg 50%
01:00 -1°C° 0 mm 1 m/s 710 mmHg 50%
02:00 -1°C° 0 mm 1 m/s 710 mmHg 50%
03:00 -1°C° 0 mm 1 m/s 710 mmHg 50%
04:00 -1°C° 0 mm 1 m/s 710 mmHg 50%
05:00 -1°C° 0 mm 1 m/s 710 mmHg 50%
06:00 -1°C° 0 mm 1 m/s 710 mmHg 49%
07:00 -1°C° 0 mm 0 m/s 710 mmHg 50%
08:00 0°C° 0 mm 0 m/s 711 mmHg 50%
09:00 +1°C° 0 mm 0 m/s 711 mmHg 50%
10:00 +2°C° 0 mm 0 m/s 711 mmHg 51%
11:00 +2°C° 0 mm 0 m/s 710 mmHg 52%
12:00 +4°C° 0 mm 1 m/s 710 mmHg 53%
13:00 +3°C° 0 mm 1 m/s 710 mmHg 56%
14:00 +2°C° 0 mm 0 m/s 710 mmHg 60%
15:00 +2°C° 0 mm 0 m/s 709 mmHg 63%
16:00 +1°C° 0 mm 0 m/s 710 mmHg 64%
17:00 0°C° 0 mm 0 m/s 710 mmHg 65%
18:00 -2°C° 0 mm 0 m/s 710 mmHg 66%
19:00 -2°C° 0 mm 0 m/s 710 mmHg 65%
20:00 -2°C° 0 mm 0 m/s 710 mmHg 63%
21:00 -2°C° 0 mm 0 m/s 710 mmHg 62%
22:00 -2°C° 0 mm 0 m/s 710 mmHg 62%
23:00 -1°C° 0 mm 1 m/s 710 mmHg 61%

20 Janeiro, Quarta-feira

Tempo Temperatura Precipitação Vento Pressão Humidade
00:00 -1°C° 0 mm 1 m/s 710 mmHg 60%
01:00 -2°C° 0 mm 0 m/s 709 mmHg 61%
02:00 -2°C° 0 mm 0 m/s 709 mmHg 61%
03:00 -2°C° 0 mm 0 m/s 709 mmHg 61%
04:00 -2°C° 0 mm 0 m/s 708 mmHg 62%
05:00 -2°C° 0 mm 0 m/s 708 mmHg 63%
06:00 -2°C° 0 mm 0 m/s 708 mmHg 64%
07:00 -1°C° 0 mm 0 m/s 708 mmHg 64%
08:00 -1°C° 0 mm 0 m/s 708 mmHg 63%
09:00 0°C° 0 mm 0 m/s 708 mmHg 62%
10:00 +1°C° 0 mm 0 m/s 707 mmHg 61%
11:00 +3°C° 0 mm 1 m/s 707 mmHg 60%
12:00 +3°C° 0 mm 1 m/s 707 mmHg 60%
13:00 +3°C° 0 mm 1 m/s 706 mmHg 63%
14:00 +3°C° 0 mm 1 m/s 706 mmHg 65%
15:00 +2°C° 0 mm 1 m/s 706 mmHg 68%
16:00 +2°C° 0 mm 1 m/s 705 mmHg 71%
17:00 0°C° 0 mm 0 m/s 705 mmHg 75%
18:00 -1°C° 0 mm 0 m/s 705 mmHg 78%
19:00 -1°C° 0 mm 0 m/s 705 mmHg 79%
20:00 -1°C° 0 mm 0 m/s 705 mmHg 79%
21:00 -1°C° 0 mm 0 m/s 705 mmHg 80%
22:00 -1°C° 0 mm 0 m/s 705 mmHg 79%
23:00 -1°C° 0 mm 0 m/s 704 mmHg 78%
Mostrar mais

Necessitamos do seu Consentimento

A Meteoprog e os seus Fornecedores de Serviços podem armazenar e aceder a dados pessoais como cookies, identificadores do dispositivo ou outras tecnologias semelhantes existentes no seu dispositivo e processar estes dados para personalizar conteúdos e anúncios, assim como funcionalidades nas redes sociais e análise de tráfego.

  • Armazenar e/ou aceder a informações no seu dispositivo

    Os cookies, identificadores do dispositivo ou outras informações podem ser armazenados ou acedidos no seu dispositivo, para os fins acima indicados.

  • Anúncios e conteúdos personalizados, medição de anúncios e conteúdos, dados sobre o público-alvo e desenvolvimento de produtos

    Os anúncios e os conteúdos podem ser personalizados com base num perfil. Podem ser adicionados dados adicionais para uma maior personalização dos anúncios e dos conteúdos. A eficácia dos anúncios e dos conteúdos pode ser medida. Podem ser obtidas informações sobre o público que visualizou os anúncios e os conteúdos. Estes dados podem ser usados para desenvolver ou melhorar sistemas, softwares ou a experiência do utilizador.

Ao clicar em "Eu concordo”, permitirá o uso de cookies, identificadores do dispositivo e web beacons mencionados ou outras tecnologias semelhantes. As configurações do navegador do seu dispositivo podem ser alteradas.

Para certos fins, podem ser invocados interesses legítimos ao invés de consentimento. Pode ler mais informação sobre este assunto na nossa Política de Privacidade e Cookies.